Location: Unspecified
(42.3650°N, 71.1030°W)
Time: 10:56:29
(UTC+00:00)

Tiros 1 - Pass Details

Date: 01 July 2024
Orbit: 624 x 656 km, 48.4° (Epoch: 20 July)

Event Time Altitude Azimuth Distance (km) Brightness Sun altitude
Rises 05:25:53 0° 294° (WNW) 2,904 10.7 -24.0°
Reaches altitude 10° 05:28:16 10° 299° (WNW) 1,998 9.9 -23.9°
Maximum altitude 05:32:44 49° 15° (NNE) 810 8.0 -23.8°
Drops below altitude 10° 05:37:12 10° 91° (E) 2,006 9.8 -23.6°
Sets 05:39:36 0° 97° (E) 2,917 10.6 -23.5°
